Weather History for KFST - November, 2012

Change the Weather History Date:

Thursday, November 8, 2012

  Actual Average Record
Temperature  
Mean Temperature 70 °F -  
Max Temperature 86 °F 67 °F 91 °F (2005)
Min Temperature 55 °F 45 °F 32 °F (2000)
Cooling Degree Days 6    
Growing Degree Days 20 (Base 50)    
Moisture  
Dew Point 40 °F    
Average Humidity 38    
Maximum Humidity 60    
Minimum Humidity 13    
Precipitation  
Precipitation 0.00 in - - ()
Sea Level Pressure  
Sea Level Pressure 29.87 in    
Wind  
Wind Speed 13 mph (South)    
Max Wind Speed 20 mph    
Max Gust Speed 25 mph    
Visibility 10 miles    
Events      
Averages and records for this station are not official NWS values.
T = Trace of Precipitation, MM = Missing Value Source: NWS Daily Summary

Daily Weather History Graph

Daily Weather History Graph

Search for Another Location

Airport or City:

Trip Planner

Search our weather history database for the weather conditions in past years. The results will help you decide how hot, cold, wet, or windy it might be!

Date:

Astronomy

Nov. 08, 2012 Rise Set
Actual Time 7:12 AM CST 5:57 PM CST
Civil Twilight 6:47 AM CST 6:22 PM CST
Nautical Twilight 6:18 AM CST 6:51 PM CST
Astronomical Twilight 5:50 AM CST 7:20 PM CST
Moon 1:33 AM CST (11/8) 2:19 PM CST (11/8)
Length of Visible Light 11h 35m
Length of Day
10h 44m
Waning Crescent, 32% of the Moon is Illuminated
Nov 8
Waning Crescent
Nov 13
New
Nov 20
First Quarter
Nov 28
Full
Dec 6
Last Quarter

Hourly Weather History & Observations

Time (CST) Temp. Dew Point Humidity Pressure Visibility Wind Dir Wind Speed Gust Speed Precip Events Conditions
12:53 AM 61.0 °F 46.9 °F 60% 29.92 in 10.0 mi SSW 10.4 mph - N/A   Clear
1:53 AM 60.1 °F 44.1 °F 55% 29.91 in 10.0 mi SSW 11.5 mph - N/A   Clear
2:53 AM 60.1 °F 41.0 °F 49% 29.90 in 10.0 mi SSW 12.7 mph - N/A   Clear
3:53 AM 55.0 °F 41.0 °F 59% 29.90 in 10.0 mi South 6.9 mph - N/A   Clear
4:53 AM 60.1 °F 39.9 °F 47% 29.89 in 10.0 mi SSW 12.7 mph - N/A   Clear
5:53 AM 57.9 °F 39.9 °F 51% 29.91 in 10.0 mi SW 13.8 mph - N/A   Clear
6:53 AM 60.1 °F 39.0 °F 46% 29.91 in 10.0 mi SW 16.1 mph - N/A   Clear
7:53 AM 61.0 °F 37.9 °F 42% 29.94 in 10.0 mi SW 12.7 mph - N/A   Clear
8:53 AM 64.0 °F 37.9 °F 38% 29.95 in 10.0 mi SW 13.8 mph - N/A   Clear
9:53 AM 77.0 °F 36.0 °F 23% 29.94 in 10.0 mi SW 12.7 mph - N/A   Clear
11:53 AM 84.0 °F 32.0 °F 15% 29.90 in 10.0 mi SSW 15.0 mph - N/A   Clear
12:53 PM 86.0 °F 30.9 °F 14% 29.86 in 10.0 mi SW 11.5 mph 23.0 mph N/A   Clear
1:53 PM 86.0 °F 28.9 °F 13% 29.83 in 10.0 mi South 16.1 mph 23.0 mph N/A   Clear
2:53 PM 84.0 °F 28.9 °F 14% 29.82 in 10.0 mi South 17.3 mph - N/A   Clear
3:53 PM 84.0 °F 28.9 °F 14% 29.81 in 10.0 mi South 10.4 mph - N/A   Clear
4:53 PM 82.9 °F 28.0 °F 14% 29.81 in 10.0 mi South 12.7 mph - N/A   Clear
5:53 PM 78.1 °F 37.9 °F 24% 29.82 in 10.0 mi SSE 16.1 mph 23.0 mph N/A   Clear
6:53 PM 73.9 °F 43.0 °F 33% 29.84 in 10.0 mi SSE 19.6 mph 25.3 mph N/A   Clear
7:53 PM 72.0 °F 51.1 °F 48% 29.86 in 10.0 mi SSE 13.8 mph - N/A   Clear
8:53 PM 71.1 °F 51.1 °F 49% 29.86 in 10.0 mi SSE 15.0 mph 23.0 mph N/A   Clear
9:53 PM 69.1 °F 52.0 °F 54% 29.85 in 10.0 mi SSE 12.7 mph - N/A   Clear
10:53 PM 68.0 °F 51.1 °F 55% 29.84 in 10.0 mi SSE 12.7 mph 19.6 mph N/A   Clear
11:53 PM 66.0 °F 51.1 °F 59% 29.84 in 10.0 mi SSE 10.4 mph - N/A   Clear